Home > Weather > Aktau > Past weeks

Flag for Kazakhstan Weather for the Past 2 Weeks in Aktau, Kazakhstan

Now
30 °F

Sunny.


Feels Like: 23 °F
Forecast: 27 / 36 °F
Wind: 8 mph from North

Location: Aktau

Current Time: Feb 8, 2016 at 8:11:00 PM

Latest Report: Feb 8, 2016 at 7:30 PM


Visibility: 10 mi

Pressure: 30.54 "Hg

Humidity: 75%

Dew point: 23 °F

Location of AktauLocation

Historic Weather in Aktau — Graph

°F

Aktau Temperature Yesterday

Maximum temperature yesterday: 36 °F (at 12:00 AM)
Minimum temperature yesterday: 32 °F (at 7:00 PM)
Average temperature yesterday: 35 °F

High & Low Weather Summary for the Past Weeks

 TemperatureHumidityPressure
High54 °F (Feb 5, 2:00 PM)93% (Jan 24, 8:30 PM)30.51 "Hg (Jan 24, 8:30 PM)
Low14 °F (Jan 28, 12:30 AM)50% (Jan 27, 4:00 PM)29.65 "Hg (Feb 6, 8:30 AM)
Average35 °F77%30.17 "Hg
* Reported Jan 24 7:00 PM — Feb 8 7:00 PM, Aktau, Weather by CustomWeather, © 2016

Note: Actual official high and low records may vary slightly from our data, if they occured in-between our weather recording intervals... More about our weather records

Advertising

Aktau Weather History for the Previous 24 Hours

 ConditionsComfort  
Time TempWeatherWind HumidityBarometerVisibility
7:00 PM
Mon, Feb 8
32 °FSunny.8 mph69%30.51 "Hg10 mi
6:30 PM34 °FSunny.10 mph65%30.51 "Hg10 mi
6:00 PM34 °FScattered clouds.13 mph60%30.51 "HgN/A
5:30 PM34 °FScattered clouds.17 mph60%30.51 "HgN/A
5:00 PM36 °FScattered clouds.17 mph52%30.48 "HgN/A
4:30 PM36 °FScattered clouds.17 mph56%30.48 "HgN/A
4:00 PM36 °FScattered clouds.20 mph56%30.48 "HgN/A
3:30 PM36 °FScattered clouds.17 mph56%30.48 "HgN/A
3:00 PM36 °FScattered clouds.17 mph56%30.48 "HgN/A
2:30 PM36 °FSunny.17 mph56%30.51 "Hg10 mi
2:00 PM36 °FSunny.17 mph56%30.51 "Hg10 mi
1:30 PM36 °FScattered clouds.17 mph56%30.51 "HgN/A
1:00 PM34 °FScattered clouds.17 mph60%30.51 "HgN/A
12:30 PM34 °FScattered clouds.17 mph60%30.51 "HgN/A
12:00 PM34 °FScattered clouds.17 mph60%30.51 "HgN/A
11:30 AM34 °FScattered clouds.17 mph60%30.48 "HgN/A
11:00 AM32 °FScattered clouds.13 mph69%30.48 "HgN/A
10:30 AM32 °FPassing clouds.10 mph64%30.48 "HgN/A
10:00 AM30 °FPassing clouds.6 mph69%30.48 "HgN/A
9:30 AM28 °FPassing clouds.8 mph74%30.48 "HgN/A
9:00 AM28 °FPassing clouds.6 mph74%30.48 "HgN/A
8:30 AM27 °FPassing clouds.6 mph80%30.45 "HgN/A
8:00 AM28 °FPassing clouds.8 mph74%30.45 "HgN/A
7:30 AM28 °FPassing clouds.10 mph80%30.42 "HgN/A
7:00 AM28 °FPassing clouds.15 mph80%30.42 "HgN/A
6:00 AM30 °FPassing clouds.15 mph75%30.39 "HgN/A
5:30 AM30 °FPassing clouds.20 mph75%30.39 "HgN/A
5:00 AM30 °FPassing clouds.15 mph80%30.39 "HgN/A
4:30 AM30 °FClear.8 mph80%30.36 "Hg10 mi
4:00 AM30 °FClear.10 mph80%30.36 "Hg10 mi
3:30 AM30 °FClear.15 mph75%30.36 "Hg10 mi
3:00 AM30 °FClear.10 mph75%30.36 "Hg10 mi
2:30 AM30 °FClear.10 mph80%30.33 "Hg10 mi
2:00 AM30 °FClear.10 mph80%30.33 "Hg10 mi
1:30 AM30 °FClear.10 mph86%30.33 "Hg10 mi
1:00 AM32 °FClear.13 mph80%30.33 "Hg10 mi
12:30 AM32 °FClear.8 mph80%30.33 "Hg10 mi
12:00 AM32 °FMostly cloudy.10 mph80%30.33 "HgN/A
11:30 PM
Sun, Feb 7
34 °FMostly cloudy.10 mph75%30.33 "HgN/A
11:00 PM34 °FMostly cloudy.13 mph75%30.30 "HgN/A
10:30 PM34 °FClear.13 mph70%30.30 "Hg10 mi
10:00 PM34 °FClear.13 mph65%30.27 "Hg10 mi
9:30 PM34 °FClear.13 mph70%30.27 "Hg10 mi
9:00 PM34 °FClear.13 mph70%30.24 "Hg10 mi
8:30 PM32 °FSunny.13 mph75%30.24 "Hg10 mi
8:00 PM32 °FLight snow. More clouds than sun.13 mph80%30.24 "HgN/A
Weather by CustomWeather, © 2016

See weather overviewHow to use our weather pages